owner,sensor,date,latitude,longitude,vertical_datum,mass_concentration_of_oxygen_in_sea_water,qcFlag 
SCCF RECON,ioos:station:SCCF:13:1,2014-04-01T00:00:00Z,26.5255,-82.0032,2.26,6.41,1111122 
SCCF RECON,ioos:station:SCCF:13:1,2014-04-01T01:00:00Z,26.5255,-82.0032,2.194,6.37,1111122 
SCCF RECON,ioos:station:SCCF:13:1,2014-04-01T02:00:00Z,26.5255,-82.0032,2.18,6.51,1111122 
SCCF RECON,ioos:station:SCCF:13:1,2014-04-01T03:00:00Z,26.5255,-82.0032,2.31,6.52,1111122 
SCCF RECON,ioos:station:SCCF:13:1,2014-04-01T04:00:00Z,26.5255,-82.0032,2.47,6.17,1111122 
SCCF RECON,ioos:station:SCCF:13:1,2014-04-01T05:00:00Z,26.5255,-82.0032,2.57,6.07,1111122 
SCCF RECON,ioos:station:SCCF:13:1,2014-04-01T06:00:00Z,26.5255,-82.0032,2.64,6.17,1111122 
SCCF RECON,ioos:station:SCCF:13:1,2014-04-01T07:00:00Z,26.5255,-82.0032,2.69,6.05,1111122 
SCCF RECON,ioos:station:SCCF:13:1,2014-04-01T08:00:00Z,26.5255,-82.0032,2.699,6.06,1111122 
SCCF RECON,ioos:station:SCCF:13:1,2014-04-01T09:00:00Z,26.5255,-82.0032,2.62,6.1,1111122 
SCCF RECON,ioos:station:SCCF:13:1,2014-04-01T10:00:00Z,26.5255,-82.0032,2.53,5.84,1111122 
SCCF RECON,ioos:station:SCCF:13:1,2014-04-01T11:00:00Z,26.5255,-82.0032,2.46,5.92,1111122 
SCCF RECON,ioos:station:SCCF:13:1,2014-04-01T12:00:00Z,26.5255,-82.0032,2.401,5.95,1111122 
SCCF RECON,ioos:station:SCCF:13:1,2014-04-01T13:00:00Z,26.5255,-82.0032,2.37,6.13,1111122 
SCCF RECON,ioos:station:SCCF:13:1,2014-04-01T14:00:00Z,26.5255,-82.0032,2.41,6.29,1111122 
SCCF RECON,ioos:station:SCCF:13:1,2014-04-01T15:00:00Z,26.5255,-82.0032,2.56,6.25,1111122 
SCCF RECON,ioos:station:SCCF:13:1,2014-04-01T16:00:00Z,26.5255,-82.0032,2.68,6.13,1111122 
SCCF RECON,ioos:station:SCCF:13:1,2014-04-01T17:00:00Z,26.5255,-82.0032,2.767,6.07,1111122 
SCCF RECON,ioos:station:SCCF:13:1,2014-04-01T18:00:00Z,26.5255,-82.0032,2.81,6.18,1111122 
SCCF RECON,ioos:station:SCCF:13:1,2014-04-01T19:00:00Z,26.5255,-82.0032,2.83,6.14,1111122 
SCCF RECON,ioos:station:SCCF:13:1,2014-04-01T20:00:00Z,26.5255,-82.0032,2.806,6.29,1111122 
SCCF RECON,ioos:station:SCCF:13:1,2014-04-01T21:00:00Z,26.5255,-82.0032,2.7,6.36,1111122 
SCCF RECON,ioos:station:SCCF:13:1,2014-04-01T22:00:00Z,26.5255,-82.0032,2.579,6.49,1111122 
SCCF RECON,ioos:station:SCCF:13:1,2014-04-01T23:00:00Z,26.5255,-82.0032,2.482,6.52,1111122 
SCCF RECON,ioos:station:SCCF:13:1,2014-04-02T00:00:00Z,26.5255,-82.0032,2.41,6.45,1111122 
SCCF RECON,ioos:station:SCCF:13:1,2014-04-02T01:00:00Z,26.5255,-82.0032,2.331,6.54,1111122 
SCCF RECON,ioos:station:SCCF:13:1,2014-04-02T02:00:00Z,26.5255,-82.0032,2.27,6.58,1111122 
SCCF RECON,ioos:station:SCCF:13:1,2014-04-02T03:00:00Z,26.5255,-82.0032,2.26,6.67,1111122 
SCCF RECON,ioos:station:SCCF:13:1,2014-04-02T04:00:00Z,26.5255,-82.0032,2.419,6.64,1111122 
SCCF RECON,ioos:station:SCCF:13:1,2014-04-02T05:00:00Z,26.5255,-82.0032,2.54,6.42,1111122 
SCCF RECON,ioos:station:SCCF:13:1,2014-04-02T06:00:00Z,26.5255,-82.0032,2.61,6.24,1111122 
SCCF RECON,ioos:station:SCCF:13:1,2014-04-02T07:00:00Z,26.5255,-82.0032,2.66,6.14,1111122 
SCCF RECON,ioos:station:SCCF:13:1,2014-04-02T08:00:00Z,26.5255,-82.0032,2.69,5.99,1111122 
SCCF RECON,ioos:station:SCCF:13:1,2014-04-02T09:00:00Z,26.5255,-82.0032,2.681,6.06,1111122 
SCCF RECON,ioos:station:SCCF:13:1,2014-04-02T10:00:00Z,26.5255,-82.0032,2.61,6.02,1111122 
SCCF RECON,ioos:station:SCCF:13:1,2014-04-02T11:00:00Z,26.5255,-82.0032,2.55,5.89,1111122 
SCCF RECON,ioos:station:SCCF:13:1,2014-04-02T12:00:00Z,26.5255,-82.0032,2.482,5.87,1111122 
SCCF RECON,ioos:station:SCCF:13:1,2014-04-02T13:00:00Z,26.5255,-82.0032,2.43,6.05,1111122 
SCCF RECON,ioos:station:SCCF:13:1,2014-04-02T14:00:00Z,26.5255,-82.0032,2.42,6.28,1111122 
SCCF RECON,ioos:station:SCCF:13:1,2014-04-02T15:00:00Z,26.5255,-82.0032,2.506,6.44,1111122 
SCCF RECON,ioos:station:SCCF:13:1,2014-04-02T16:00:00Z,26.5255,-82.0032,2.633,6.06,1111122 
SCCF RECON,ioos:station:SCCF:13:1,2014-04-02T17:00:00Z,26.5255,-82.0032,2.732,6.11,1111122 
SCCF RECON,ioos:station:SCCF:13:1,2014-04-02T18:00:00Z,26.5255,-82.0032,2.785,6.21,1111122 
SCCF RECON,ioos:station:SCCF:13:1,2014-04-02T19:00:00Z,26.5255,-82.0032,2.82,6.39,1111122 
SCCF RECON,ioos:station:SCCF:13:1,2014-04-02T20:00:00Z,26.5255,-82.0032,2.809,6.35,1111122 
SCCF RECON,ioos:station:SCCF:13:1,2014-04-02T21:00:00Z,26.5255,-82.0032,2.731,6.35,1111122 
SCCF RECON,ioos:station:SCCF:13:1,2014-04-02T22:00:00Z,26.5255,-82.0032,2.628,6.35,1111122 
SCCF RECON,ioos:station:SCCF:13:1,2014-04-02T23:00:00Z,26.5255,-82.0032,2.52,6.47,1111122 
SCCF RECON,ioos:station:SCCF:13:1,2014-04-03T00:00:00Z,26.5255,-82.0032,2.442,6.6,1111122 
SCCF RECON,ioos:station:SCCF:13:1,2014-04-03T01:00:00Z,26.5255,-82.0032,2.37,6.52,1111122 
SCCF RECON,ioos:station:SCCF:13:1,2014-04-03T02:00:00Z,26.5255,-82.0032,2.292,6.53,1111122 
SCCF RECON,ioos:station:SCCF:13:1,2014-04-03T03:00:00Z,26.5255,-82.0032,2.23,6.54,1111122 
SCCF RECON,ioos:station:SCCF:13:1,2014-04-03T04:00:00Z,26.5255,-82.0032,2.241,6.47,1111122 
SCCF RECON,ioos:station:SCCF:13:1,2014-04-03T05:00:00Z,26.5255,-82.0032,2.39,6.45,1111122 
SCCF RECON,ioos:station:SCCF:13:1,2014-04-03T06:00:00Z,26.5255,-82.0032,2.481,6.18,1111122 
SCCF RECON,ioos:station:SCCF:13:1,2014-04-03T07:00:00Z,26.5255,-82.0032,2.52,5.93,1111122 
SCCF RECON,ioos:station:SCCF:13:1,2014-04-03T08:00:00Z,26.5255,-82.0032,2.546,6.05,1111122 
SCCF RECON,ioos:station:SCCF:13:1,2014-04-03T09:00:00Z,26.5255,-82.0032,2.57,5.96,1111122 
SCCF RECON,ioos:station:SCCF:13:1,2014-04-03T10:00:00Z,26.5255,-82.0032,2.55,5.86,1111122 
SCCF RECON,ioos:station:SCCF:13:1,2014-04-03T11:00:00Z,26.5255,-82.0032,2.5,5.75,1111122 
SCCF RECON,ioos:station:SCCF:13:1,2014-04-03T12:00:00Z,26.5255,-82.0032,2.46,5.7,1111122 
SCCF RECON,ioos:station:SCCF:13:1,2014-04-03T13:00:00Z,26.5255,-82.0032,2.45,5.41,1111122 
SCCF RECON,ioos:station:SCCF:13:1,2014-04-03T14:00:00Z,26.5255,-82.0032,2.429,5.84,1111122 
SCCF RECON,ioos:station:SCCF:13:1,2014-04-03T15:00:00Z,26.5255,-82.0032,2.454,5.98,1111122 
SCCF RECON,ioos:station:SCCF:13:1,2014-04-03T16:00:00Z,26.5255,-82.0032,2.53,5.48,1111122 
SCCF RECON,ioos:station:SCCF:13:1,2014-04-03T17:00:00Z,26.5255,-82.0032,2.615,6.03,1111122 
SCCF RECON,ioos:station:SCCF:13:1,2014-04-03T18:00:00Z,26.5255,-82.0032,2.699,6.24,1111122 
SCCF RECON,ioos:station:SCCF:13:1,2014-04-03T19:00:00Z,26.5255,-82.0032,2.75,6.08,1111122 
SCCF RECON,ioos:station:SCCF:13:1,2014-04-03T20:00:00Z,26.5255,-82.0032,2.781,6.17,1111122 
SCCF RECON,ioos:station:SCCF:13:1,2014-04-03T21:00:00Z,26.5255,-82.0032,2.776,6.27,1111122 
SCCF RECON,ioos:station:SCCF:13:1,2014-04-03T22:00:00Z,26.5255,-82.0032,2.71,6.28,1111122 
SCCF RECON,ioos:station:SCCF:13:1,2014-04-03T23:00:00Z,26.5255,-82.0032,2.61,6.14,1111122 
SCCF RECON,ioos:station:SCCF:13:1,2014-04-04T00:00:00Z,26.5255,-82.0032,2.51,6.22,1111122 
SCCF RECON,ioos:station:SCCF:13:1,2014-04-04T01:00:00Z,26.5255,-82.0032,2.43,6.17,1111122 
SCCF RECON,ioos:station:SCCF:13:1,2014-04-04T02:00:00Z,26.5255,-82.0032,2.367,6.14,1111122 
SCCF RECON,ioos:station:SCCF:13:1,2014-04-04T03:00:00Z,26.5255,-82.0032,2.29,6.17,1111122 
SCCF RECON,ioos:station:SCCF:13:1,2014-04-04T04:00:00Z,26.5255,-82.0032,2.25,6.14,1111122 
SCCF RECON,ioos:station:SCCF:13:1,2014-04-04T05:00:00Z,26.5255,-82.0032,2.318,6.08,1111122 
SCCF RECON,ioos:station:SCCF:13:1,2014-04-04T06:00:00Z,26.5255,-82.0032,2.436,6.02,1111122 
SCCF RECON,ioos:station:SCCF:13:1,2014-04-04T07:00:00Z,26.5255,-82.0032,2.49,5.37,1111122 
SCCF RECON,ioos:station:SCCF:13:1,2014-04-04T08:00:00Z,26.5255,-82.0032,2.525,5.6,1111122 
SCCF RECON,ioos:station:SCCF:13:1,2014-04-04T09:00:00Z,26.5255,-82.0032,2.57,5.63,1111122 
SCCF RECON,ioos:station:SCCF:13:1,2014-04-04T10:00:00Z,26.5255,-82.0032,2.6,5.62,1111122 
SCCF RECON,ioos:station:SCCF:13:1,2014-04-04T11:00:00Z,26.5255,-82.0032,2.58,5.6,1111122 
SCCF RECON,ioos:station:SCCF:13:1,2014-04-04T12:00:00Z,26.5255,-82.0032,2.55,5.35,1111122 
SCCF RECON,ioos:station:SCCF:13:1,2014-04-04T13:00:00Z,26.5255,-82.0032,2.54,5.3,1111122 
SCCF RECON,ioos:station:SCCF:13:1,2014-04-04T14:00:00Z,26.5255,-82.0032,2.52,5.4,1111122 
SCCF RECON,ioos:station:SCCF:13:1,2014-04-04T15:00:00Z,26.5255,-82.0032,2.52,5.41,1111122 
SCCF RECON,ioos:station:SCCF:13:1,2014-04-04T16:00:00Z,26.5255,-82.0032,2.55,5.29,1111122 
SCCF RECON,ioos:station:SCCF:13:1,2014-04-04T17:00:00Z,26.5255,-82.0032,2.613,5.71,1111122 
SCCF RECON,ioos:station:SCCF:13:1,2014-04-04T18:00:00Z,26.5255,-82.0032,2.69,6.12,1111122 
SCCF RECON,ioos:station:SCCF:13:1,2014-04-04T19:00:00Z,26.5255,-82.0032,2.749,6.0,1111122 
SCCF RECON,ioos:station:SCCF:13:1,2014-04-04T20:00:00Z,26.5255,-82.0032,2.79,5.84,1111122 
SCCF RECON,ioos:station:SCCF:13:1,2014-04-04T21:00:00Z,26.5255,-82.0032,2.79,6.02,1111122 
SCCF RECON,ioos:station:SCCF:13:1,2014-04-04T22:00:00Z,26.5255,-82.0032,2.74,6.15,1111122 
SCCF RECON,ioos:station:SCCF:13:1,2014-04-04T23:00:00Z,26.5255,-82.0032,2.66,6.05,1111122 
SCCF RECON,ioos:station:SCCF:13:1,2014-04-05T00:00:00Z,26.5255,-82.0032,2.573,6.03,1111122 
SCCF RECON,ioos:station:SCCF:13:1,2014-04-05T01:00:00Z,26.5255,-82.0032,2.5,5.93,1111122 
SCCF RECON,ioos:station:SCCF:13:1,2014-04-05T02:00:00Z,26.5255,-82.0032,2.43,6.03,1111122 
SCCF RECON,ioos:station:SCCF:13:1,2014-04-05T03:00:00Z,26.5255,-82.0032,2.354,6.07,1111122 
SCCF RECON,ioos:station:SCCF:13:1,2014-04-05T04:00:00Z,26.5255,-82.0032,2.28,6.02,1111122 
SCCF RECON,ioos:station:SCCF:13:1,2014-04-05T05:00:00Z,26.5255,-82.0032,2.24,5.91,1111122 
SCCF RECON,ioos:station:SCCF:13:1,2014-04-05T06:00:00Z,26.5255,-82.0032,2.3,5.87,1111122 
SCCF RECON,ioos:station:SCCF:13:1,2014-04-05T07:00:00Z,26.5255,-82.0032,2.41,5.83,1111122 
SCCF RECON,ioos:station:SCCF:13:1,2014-04-05T08:00:00Z,26.5255,-82.0032,2.47,5.34,1111122 
SCCF RECON,ioos:station:SCCF:13:1,2014-04-05T09:00:00Z,26.5255,-82.0032,2.517,5.64,1111122 
SCCF RECON,ioos:station:SCCF:13:1,2014-04-05T10:00:00Z,26.5255,-82.0032,2.559,5.49,1111122 
SCCF RECON,ioos:station:SCCF:13:1,2014-04-05T11:00:00Z,26.5255,-82.0032,2.575,5.41,1111122 
SCCF RECON,ioos:station:SCCF:13:1,2014-04-05T12:00:00Z,26.5255,-82.0032,2.572,5.34,1111122 
SCCF RECON,ioos:station:SCCF:13:1,2014-04-05T13:00:00Z,26.5255,-82.0032,2.54,5.18,1111122 
SCCF RECON,ioos:station:SCCF:13:1,2014-04-05T14:00:00Z,26.5255,-82.0032,2.51,5.06,1111122 
SCCF RECON,ioos:station:SCCF:13:1,2014-04-05T15:00:00Z,26.5255,-82.0032,2.499,5.2,1111122 
SCCF RECON,ioos:station:SCCF:13:1,2014-04-05T16:00:00Z,26.5255,-82.0032,2.51,5.14,1111122 
SCCF RECON,ioos:station:SCCF:13:1,2014-04-05T17:00:00Z,26.5255,-82.0032,2.57,5.05,1111122 
SCCF RECON,ioos:station:SCCF:13:1,2014-04-05T18:00:00Z,26.5255,-82.0032,2.602,5.3,1111122 
SCCF RECON,ioos:station:SCCF:13:1,2014-04-05T19:00:00Z,26.5255,-82.0032,2.64,6.08,1111122 
SCCF RECON,ioos:station:SCCF:13:1,2014-04-05T20:00:00Z,26.5255,-82.0032,2.691,5.89,1111122 
SCCF RECON,ioos:station:SCCF:13:1,2014-04-05T21:00:00Z,26.5255,-82.0032,2.72,5.81,1111122 
SCCF RECON,ioos:station:SCCF:13:1,2014-04-05T22:00:00Z,26.5255,-82.0032,2.714,5.9,1111122 
SCCF RECON,ioos:station:SCCF:13:1,2014-04-05T23:00:00Z,26.5255,-82.0032,2.671,5.93,1111122 
SCCF RECON,ioos:station:SCCF:13:1,2014-04-06T00:00:00Z,26.5255,-82.0032,2.61,5.77,1111122 
SCCF RECON,ioos:station:SCCF:13:1,2014-04-06T01:00:00Z,26.5255,-82.0032,2.52,5.69,1111122 
SCCF RECON,ioos:station:SCCF:13:1,2014-04-06T02:00:00Z,26.5255,-82.0032,2.46,5.77,1111122 
SCCF RECON,ioos:station:SCCF:13:1,2014-04-06T03:00:00Z,26.5255,-82.0032,2.39,5.9,1111122 
SCCF RECON,ioos:station:SCCF:13:1,2014-04-06T04:00:00Z,26.5255,-82.0032,2.32,5.93,1111122 
SCCF RECON,ioos:station:SCCF:13:1,2014-04-06T05:00:00Z,26.5255,-82.0032,2.26,5.89,1111122 
SCCF RECON,ioos:station:SCCF:13:1,2014-04-06T06:00:00Z,26.5255,-82.0032,2.239,5.71,1111122 
SCCF RECON,ioos:station:SCCF:13:1,2014-04-06T07:00:00Z,26.5255,-82.0032,2.28,5.68,1111122 
SCCF RECON,ioos:station:SCCF:13:1,2014-04-06T08:00:00Z,26.5255,-82.0032,2.35,5.65,1111122 
SCCF RECON,ioos:station:SCCF:13:1,2014-04-06T09:00:00Z,26.5255,-82.0032,2.4,5.36,1111122 
SCCF RECON,ioos:station:SCCF:13:1,2014-04-06T10:00:00Z,26.5255,-82.0032,2.45,4.98,1111122 
SCCF RECON,ioos:station:SCCF:13:1,2014-04-06T11:00:00Z,26.5255,-82.0032,2.49,5.34,1111122 
SCCF RECON,ioos:station:SCCF:13:1,2014-04-06T12:00:00Z,26.5255,-82.0032,2.52,5.2,1111122 
SCCF RECON,ioos:station:SCCF:13:1,2014-04-06T13:00:00Z,26.5255,-82.0032,2.53,5.21,1111122 
SCCF RECON,ioos:station:SCCF:13:1,2014-04-06T14:00:00Z,26.5255,-82.0032,2.525,5.33,1111122 
SCCF RECON,ioos:station:SCCF:13:1,2014-04-06T15:00:00Z,26.5255,-82.0032,2.53,5.43,1111122 
SCCF RECON,ioos:station:SCCF:13:1,2014-04-06T16:00:00Z,26.5255,-82.0032,2.53,5.59,1111122 
SCCF RECON,ioos:station:SCCF:13:1,2014-04-06T17:00:00Z,26.5255,-82.0032,2.54,5.52,1111122 
SCCF RECON,ioos:station:SCCF:13:1,2014-04-06T18:00:00Z,26.5255,-82.0032,2.557,5.75,1111122 
SCCF RECON,ioos:station:SCCF:13:1,2014-04-06T19:00:00Z,26.5255,-82.0032,2.592,5.67,1111122 
SCCF RECON,ioos:station:SCCF:13:1,2014-04-06T20:00:00Z,26.5255,-82.0032,2.643,5.9,1111122 
SCCF RECON,ioos:station:SCCF:13:1,2014-04-06T21:00:00Z,26.5255,-82.0032,2.67,5.8,1111122 
SCCF RECON,ioos:station:SCCF:13:1,2014-04-06T22:00:00Z,26.5255,-82.0032,2.681,5.84,1111122 
SCCF RECON,ioos:station:SCCF:13:1,2014-04-06T23:00:00Z,26.5255,-82.0032,2.68,5.79,1111122 
SCCF RECON,ioos:station:SCCF:13:1,2014-04-07T00:00:00Z,26.5255,-82.0032,2.659,5.55,1111122 
SCCF RECON,ioos:station:SCCF:13:1,2014-04-07T01:00:00Z,26.5255,-82.0032,2.608,5.56,1111122 
SCCF RECON,ioos:station:SCCF:13:1,2014-04-07T02:00:00Z,26.5255,-82.0032,2.54,5.52,1111122 
SCCF RECON,ioos:station:SCCF:13:1,2014-04-07T03:00:00Z,26.5255,-82.0032,2.47,5.59,1111122 
SCCF RECON,ioos:station:SCCF:13:1,2014-04-07T04:00:00Z,26.5255,-82.0032,2.4,5.75,1111122 
SCCF RECON,ioos:station:SCCF:13:1,2014-04-07T05:00:00Z,26.5255,-82.0032,2.33,5.75,1111122 
SCCF RECON,ioos:station:SCCF:13:1,2014-04-07T06:00:00Z,26.5255,-82.0032,2.28,5.65,1111122 
SCCF RECON,ioos:station:SCCF:13:1,2014-04-07T07:00:00Z,26.5255,-82.0032,2.29,5.55,1111122 
SCCF RECON,ioos:station:SCCF:13:1,2014-04-07T08:00:00Z,26.5255,-82.0032,2.35,5.49,1111122 
SCCF RECON,ioos:station:SCCF:13:1,2014-04-07T09:00:00Z,26.5255,-82.0032,2.41,5.24,1111122 
SCCF RECON,ioos:station:SCCF:13:1,2014-04-07T10:00:00Z,26.5255,-82.0032,2.46,4.86,1111122 
SCCF RECON,ioos:station:SCCF:13:1,2014-04-07T11:00:00Z,26.5255,-82.0032,2.5,5.12,1111122 
SCCF RECON,ioos:station:SCCF:13:1,2014-04-07T12:00:00Z,26.5255,-82.0032,2.56,5.02,1111122 
SCCF RECON,ioos:station:SCCF:13:1,2014-04-07T13:00:00Z,26.5255,-82.0032,2.61,4.98,1111122 
SCCF RECON,ioos:station:SCCF:13:1,2014-04-07T14:00:00Z,26.5255,-82.0032,2.64,5.13,1111122 
SCCF RECON,ioos:station:SCCF:13:1,2014-04-07T15:00:00Z,26.5255,-82.0032,2.632,5.25,1111122 
SCCF RECON,ioos:station:SCCF:13:1,2014-04-07T16:00:00Z,26.5255,-82.0032,2.611,5.34,1111122 
SCCF RECON,ioos:station:SCCF:13:1,2014-04-07T17:00:00Z,26.5255,-82.0032,2.603,5.47,1111122 
SCCF RECON,ioos:station:SCCF:13:1,2014-04-07T18:00:00Z,26.5255,-82.0032,2.618,5.53,1111122 
SCCF RECON,ioos:station:SCCF:13:1,2014-04-07T19:00:00Z,26.5255,-82.0032,2.615,5.45,1111122 
SCCF RECON,ioos:station:SCCF:13:1,2014-04-07T20:00:00Z,26.5255,-82.0032,2.61,5.46,1111122 
SCCF RECON,ioos:station:SCCF:13:1,2014-04-07T21:00:00Z,26.5255,-82.0032,2.635,5.54,1111122 
SCCF RECON,ioos:station:SCCF:13:1,2014-04-07T22:00:00Z,26.5255,-82.0032,2.671,5.45,1111122 
SCCF RECON,ioos:station:SCCF:13:1,2014-04-07T23:00:00Z,26.5255,-82.0032,2.7,5.34,1111122 
SCCF RECON,ioos:station:SCCF:13:1,2014-04-08T00:00:00Z,26.5255,-82.0032,2.689,5.28,1111122 
SCCF RECON,ioos:station:SCCF:13:1,2014-04-08T01:00:00Z,26.5255,-82.0032,2.663,5.22,1111122 
SCCF RECON,ioos:station:SCCF:13:1,2014-04-08T02:00:00Z,26.5255,-82.0032,2.6,5.3,1111122 
SCCF RECON,ioos:station:SCCF:13:1,2014-04-08T03:00:00Z,26.5255,-82.0032,2.53,5.36,1111122 
SCCF RECON,ioos:station:SCCF:13:1,2014-04-08T04:00:00Z,26.5255,-82.0032,2.46,5.42,1111122 
SCCF RECON,ioos:station:SCCF:13:1,2014-04-08T05:00:00Z,26.5255,-82.0032,2.41,5.41,1111122 
SCCF RECON,ioos:station:SCCF:13:1,2014-04-08T06:00:00Z,26.5255,-82.0032,2.341,5.42,1111122 
SCCF RECON,ioos:station:SCCF:13:1,2014-04-08T07:00:00Z,26.5255,-82.0032,2.29,5.3,1111122 
SCCF RECON,ioos:station:SCCF:13:1,2014-04-08T08:00:00Z,26.5255,-82.0032,2.29,5.25,1111122 
SCCF RECON,ioos:station:SCCF:13:1,2014-04-08T09:00:00Z,26.5255,-82.0032,2.34,5.2,1111122 
SCCF RECON,ioos:station:SCCF:13:1,2014-04-08T10:00:00Z,26.5255,-82.0032,2.408,4.87,1111122 
SCCF RECON,ioos:station:SCCF:13:1,2014-04-08T11:00:00Z,26.5255,-82.0032,2.489,4.93,1111122 
SCCF RECON,ioos:station:SCCF:13:1,2014-04-08T12:00:00Z,26.5255,-82.0032,2.568,4.97,1111122 
SCCF RECON,ioos:station:SCCF:13:1,2014-04-08T13:00:00Z,26.5255,-82.0032,2.63,4.74,1111122 
SCCF RECON,ioos:station:SCCF:13:1,2014-04-08T14:00:00Z,26.5255,-82.0032,2.69,4.71,1111122 
SCCF RECON,ioos:station:SCCF:13:1,2014-04-08T15:00:00Z,26.5255,-82.0032,2.695,4.68,1111122 
SCCF RECON,ioos:station:SCCF:13:1,2014-04-08T16:00:00Z,26.5255,-82.0032,2.708,4.72,1111122 
SCCF RECON,ioos:station:SCCF:13:1,2014-04-08T17:00:00Z,26.5255,-82.0032,2.705,4.76,1111122 
SCCF RECON,ioos:station:SCCF:13:1,2014-04-08T18:00:00Z,26.5255,-82.0032,2.775,4.85,1111122 
SCCF RECON,ioos:station:SCCF:13:1,2014-04-08T19:00:00Z,26.5255,-82.0032,2.717,4.73,1111122 
SCCF RECON,ioos:station:SCCF:13:1,2014-04-08T20:00:00Z,26.5255,-82.0032,2.642,4.84,1111122 
SCCF RECON,ioos:station:SCCF:13:1,2014-04-08T21:00:00Z,26.5255,-82.0032,2.679,4.65,1111122 
SCCF RECON,ioos:station:SCCF:13:1,2014-04-08T22:00:00Z,26.5255,-82.0032,2.687,4.61,1111122 
SCCF RECON,ioos:station:SCCF:13:1,2014-04-08T23:00:00Z,26.5255,-82.0032,2.63,4.72,1111122 
SCCF RECON,ioos:station:SCCF:13:1,2014-04-09T00:00:00Z,26.5255,-82.0032,2.607,4.8,1111122 
SCCF RECON,ioos:station:SCCF:13:1,2014-04-09T01:00:00Z,26.5255,-82.0032,2.635,4.79,1111122 
SCCF RECON,ioos:station:SCCF:13:1,2014-04-09T02:00:00Z,26.5255,-82.0032,2.703,4.58,1111122 
SCCF RECON,ioos:station:SCCF:13:1,2014-04-09T03:00:00Z,26.5255,-82.0032,2.691,4.39,1111122 
SCCF RECON,ioos:station:SCCF:13:1,2014-04-09T04:00:00Z,26.5255,-82.0032,2.61,4.49,1111122 
SCCF RECON,ioos:station:SCCF:13:1,2014-04-09T05:00:00Z,26.5255,-82.0032,2.537,4.74,1111122 
SCCF RECON,ioos:station:SCCF:13:1,2014-04-09T06:00:00Z,26.5255,-82.0032,2.448,4.64,1111122 
SCCF RECON,ioos:station:SCCF:13:1,2014-04-09T07:00:00Z,26.5255,-82.0032,2.352,4.9,1111122 
SCCF RECON,ioos:station:SCCF:13:1,2014-04-09T08:00:00Z,26.5255,-82.0032,2.317,5.01,1111122 
SCCF RECON,ioos:station:SCCF:13:1,2014-04-09T09:00:00Z,26.5255,-82.0032,2.3,5.13,1111122 
SCCF RECON,ioos:station:SCCF:13:1,2014-04-09T10:00:00Z,26.5255,-82.0032,2.31,5.22,1111122 
SCCF RECON,ioos:station:SCCF:13:1,2014-04-09T11:00:00Z,26.5255,-82.0032,2.397,5.24,1111122 
SCCF RECON,ioos:station:SCCF:13:1,2014-04-09T12:00:00Z,26.5255,-82.0032,2.429,5.05,1111122 
SCCF RECON,ioos:station:SCCF:13:1,2014-04-09T13:00:00Z,26.5255,-82.0032,2.488,4.89,1111122 
SCCF RECON,ioos:station:SCCF:13:1,2014-04-09T14:00:00Z,26.5255,-82.0032,2.481,5.19,1111122 
SCCF RECON,ioos:station:SCCF:13:1,2014-04-09T15:00:00Z,26.5255,-82.0032,2.48,5.17,1111122 
SCCF RECON,ioos:station:SCCF:13:1,2014-04-09T16:00:00Z,26.5255,-82.0032,2.464,4.98,1111122 
SCCF RECON,ioos:station:SCCF:13:1,2014-04-09T17:00:00Z,26.5255,-82.0032,2.382,5.34,1111122 
SCCF RECON,ioos:station:SCCF:13:1,2014-04-09T18:00:00Z,26.5255,-82.0032,2.332,5.65,1111122 
SCCF RECON,ioos:station:SCCF:13:1,2014-04-09T19:00:00Z,26.5255,-82.0032,2.285,5.88,1111122 
SCCF RECON,ioos:station:SCCF:13:1,2014-04-09T20:00:00Z,26.5255,-82.0032,2.243,5.91,1111122 
SCCF RECON,ioos:station:SCCF:13:1,2014-04-09T21:00:00Z,26.5255,-82.0032,2.23,5.96,1111122 
SCCF RECON,ioos:station:SCCF:13:1,2014-04-09T22:00:00Z,26.5255,-82.0032,2.238,6.13,1111122 
SCCF RECON,ioos:station:SCCF:13:1,2014-04-09T23:00:00Z,26.5255,-82.0032,2.273,6.14,1111122 
SCCF RECON,ioos:station:SCCF:13:1,2014-04-10T00:00:00Z,26.5255,-82.0032,2.33,5.9,1111122 
SCCF RECON,ioos:station:SCCF:13:1,2014-04-10T01:00:00Z,26.5255,-82.0032,2.38,5.69,1111122 
SCCF RECON,ioos:station:SCCF:13:1,2014-04-10T02:00:00Z,26.5255,-82.0032,2.4,5.79,1111122 
SCCF RECON,ioos:station:SCCF:13:1,2014-04-10T03:00:00Z,26.5255,-82.0032,2.41,5.68,1111122 
SCCF RECON,ioos:station:SCCF:13:1,2014-04-10T04:00:00Z,26.5255,-82.0032,2.41,5.59,1111122 
SCCF RECON,ioos:station:SCCF:13:1,2014-04-10T05:00:00Z,26.5255,-82.0032,2.366,5.64,1111122 
SCCF RECON,ioos:station:SCCF:13:1,2014-04-10T06:00:00Z,26.5255,-82.0032,2.285,5.46,1111122 
SCCF RECON,ioos:station:SCCF:13:1,2014-04-10T07:00:00Z,26.5255,-82.0032,2.22,5.42,1111122 
SCCF RECON,ioos:station:SCCF:13:1,2014-04-10T08:00:00Z,26.5255,-82.0032,2.17,5.43,1111122 
SCCF RECON,ioos:station:SCCF:13:1,2014-04-10T09:00:00Z,26.5255,-82.0032,2.13,5.69,1111122 
SCCF RECON,ioos:station:SCCF:13:1,2014-04-10T10:00:00Z,26.5255,-82.0032,2.13,5.67,1111122 
SCCF RECON,ioos:station:SCCF:13:1,2014-04-10T11:00:00Z,26.5255,-82.0032,2.22,5.78,1111122 
SCCF RECON,ioos:station:SCCF:13:1,2014-04-10T12:00:00Z,26.5255,-82.0032,2.31,5.57,1111122 
SCCF RECON,ioos:station:SCCF:13:1,2014-04-10T13:00:00Z,26.5255,-82.0032,2.372,5.16,1111122 
SCCF RECON,ioos:station:SCCF:13:1,2014-04-10T14:00:00Z,26.5255,-82.0032,2.44,5.4,1111122 
SCCF RECON,ioos:station:SCCF:13:1,2014-04-10T16:00:00Z,26.5255,-82.0032,2.51,6.16,1111122 
SCCF RECON,ioos:station:SCCF:13:1,2014-04-10T17:00:00Z,26.5255,-82.0032,2.502,6.31,1111122 
SCCF RECON,ioos:station:SCCF:13:1,2014-04-10T18:00:00Z,26.5255,-82.0032,2.445,6.44,1111122 
SCCF RECON,ioos:station:SCCF:13:1,2014-04-10T19:00:00Z,26.5255,-82.0032,2.391,6.19,1111122 
SCCF RECON,ioos:station:SCCF:13:1,2014-04-10T20:00:00Z,26.5255,-82.0032,2.34,6.57,1111122 
SCCF RECON,ioos:station:SCCF:13:1,2014-04-10T21:00:00Z,26.5255,-82.0032,2.29,6.86,1111122 
SCCF RECON,ioos:station:SCCF:13:1,2014-04-10T22:00:00Z,26.5255,-82.0032,2.291,7.32,1111122 
SCCF RECON,ioos:station:SCCF:13:1,2014-04-10T23:00:00Z,26.5255,-82.0032,2.35,7.16,1111122 
SCCF RECON,ioos:station:SCCF:13:1,2014-04-11T00:00:00Z,26.5255,-82.0032,2.436,6.42,1111122 
SCCF RECON,ioos:station:SCCF:13:1,2014-04-11T01:00:00Z,26.5255,-82.0032,2.505,6.91,1111122 
SCCF RECON,ioos:station:SCCF:13:1,2014-04-11T02:00:00Z,26.5255,-82.0032,2.56,6.67,1111122 
SCCF RECON,ioos:station:SCCF:13:1,2014-04-11T03:00:00Z,26.5255,-82.0032,2.584,6.56,1111122 
SCCF RECON,ioos:station:SCCF:13:1,2014-04-11T04:00:00Z,26.5255,-82.0032,2.59,6.55,1111122 
SCCF RECON,ioos:station:SCCF:13:1,2014-04-11T05:00:00Z,26.5255,-82.0032,2.55,6.75,1111122 
SCCF RECON,ioos:station:SCCF:13:1,2014-04-11T06:00:00Z,26.5255,-82.0032,2.47,6.63,1111122 
SCCF RECON,ioos:station:SCCF:13:1,2014-04-11T07:00:00Z,26.5255,-82.0032,2.38,6.55,1111122 
SCCF RECON,ioos:station:SCCF:13:1,2014-04-11T08:00:00Z,26.5255,-82.0032,2.29,6.43,1111122 
SCCF RECON,ioos:station:SCCF:13:1,2014-04-11T09:00:00Z,26.5255,-82.0032,2.24,6.55,1111122 
SCCF RECON,ioos:station:SCCF:13:1,2014-04-11T10:00:00Z,26.5255,-82.0032,2.21,6.52,1111122 
SCCF RECON,ioos:station:SCCF:13:1,2014-04-11T11:00:00Z,26.5255,-82.0032,2.28,6.55,1111122 
SCCF RECON,ioos:station:SCCF:13:1,2014-04-11T12:00:00Z,26.5255,-82.0032,2.42,6.49,1111122 
SCCF RECON,ioos:station:SCCF:13:1,2014-04-11T13:00:00Z,26.5255,-82.0032,2.511,6.23,1111122 
SCCF RECON,ioos:station:SCCF:13:1,2014-04-11T14:00:00Z,26.5255,-82.0032,2.58,6.36,1111122 
SCCF RECON,ioos:station:SCCF:13:1,2014-04-11T15:00:00Z,26.5255,-82.0032,2.647,6.34,1111122 
SCCF RECON,ioos:station:SCCF:13:1,2014-04-11T16:00:00Z,26.5255,-82.0032,2.679,6.38,1111122 
SCCF RECON,ioos:station:SCCF:13:1,2014-04-11T17:00:00Z,26.5255,-82.0032,2.661,6.63,1111122 
SCCF RECON,ioos:station:SCCF:13:1,2014-04-11T18:00:00Z,26.5255,-82.0032,2.589,6.8,1111122 
SCCF RECON,ioos:station:SCCF:13:1,2014-04-11T19:00:00Z,26.5255,-82.0032,2.511,6.65,1111122 
SCCF RECON,ioos:station:SCCF:13:1,2014-04-11T20:00:00Z,26.5255,-82.0032,2.445,7.02,1111122 
SCCF RECON,ioos:station:SCCF:13:1,2014-04-11T21:00:00Z,26.5255,-82.0032,2.393,7.3,1111122 